{"data":{"norad_id":40039,"intl_designator":"2014-033AF","name":"PERSEUS-M1","alt_names":[],"object_type":"PAYLOAD","status":"ACTIVE","operator":null,"country":"CIS","launch_date":"2014-06-19","launch_site_code":"DLS","launch_vehicle":null,"mission":null,"orbit_class":"UNKNOWN","rcs_meters":0.129,"size_class":null,"mass_kg":null,"dimensions":null,"purposes":["tech_demo"],"wikipedia_slug":null,"has_3d_model":false,"image_url":null,"decayed_at":null,"tle_current":{"epoch":"2026-09-20T02:18:47.416032Z","epoch_age_seconds":53196,"freshness":"FRESH","line1":"1 40039U 14033AF  26263.09638213  .00000673  00000+0  65627-4 0  9993","line2":"2 40039  97.9721 208.8348 0011328 349.7929  10.3060 14.95889046664824","mean_motion":14.95889046,"eccentricity":0.0011328,"inclination_deg":97.9721,"raan_deg":208.8348,"arg_perigee_deg":349.7929,"mean_anomaly_deg":10.306,"bstar":6.5627e-5,"rev_number":66482,"period_min":96.263824101831,"perigee_km":571.73286143279,"apogee_km":587.49634346329,"semimajor_km":6957.751602448,"source":"CELESTRAK","updated_at":"2026-09-20T09:00:48.025799Z"}}}